STARLINK-1503

decayed
NORAD ID: 45745 Int'l Des: 2020-038 Owner: SPXS Country: US Constellation: starlink
LEOCIRCULAR
Gruppe

Über STARLINK-1503

Beschreibung wird geladen...

Höhenverlauf

Altitude vs Time

uPlot chart will show altitude changes over time

Zweizeiliger Elementsatz

1 45745U 20038R 25135.31472693 .17840314 12544-4 31339-3 0 9999
2 45745 53.0230 82.1344 0007926 261.4790 237.1933 16.47241954272883
Epoch: 15. Mai 2025 • Age: 2954 hours

Aktueller Status

Position data unavailable
Startdatum 13. Juni 2020
Alter 5.2 years
Verglühungsdatum 15. Mai 2025
Typ internet

Technische Details

Klassifizierung Payload
Masse 260.00 kg
Trockenmasse 248.00 kg
Gesamtmasse 260.00 kg
Länge 0.20 m
Durchmesser 2.80 m
Spannweite 9.00 m
Form Box + pan
Hersteller SPXS
Bus-Typ Starlink
Phasenstatus Reentered
Besitzer/Staat SPXS/US

Große Konstellationen

Loading constellations...